FLOCK 2E-6

Last updated on Tue Feb 13 2018 00:15:05 GMT+0000 (Coordinated Universal Time)

1 41563U 98067JM 18042.88747910 .11885136 12507-4 65820-3 0 9994 2 41563 51.6080 221.3421 0008132 293.5961 66.4212 16.41948843 97606

Satellite not in orbit